TimeCDT,TemperatureF,Dew PointF,Humidity,Sea Level PressureIn,VisibilityMPH,Wind Direction,Wind SpeedMPH,Gust SpeedMPH,PrecipitationIn,Events,Conditions,WindDirDegrees,DateUTC
12:15 AM,35.6,30.2,81,29.96,10.0,WNW,10.4,-,N/A,,Mostly Cloudy,290,2013-10-21 05:15:00
12:34 AM,35.6,28.4,75,29.96,10.0,WNW,9.2,-,N/A,,Mostly Cloudy,290,2013-10-21 05:34:00
12:55 AM,35.6,30.2,81,29.96,10.0,WNW,9.2,-,N/A,,Overcast,300,2013-10-21 05:55:00
1:15 AM,35.6,30.2,81,29.97,10.0,WNW,10.4,-,N/A,,Overcast,290,2013-10-21 06:15:00
1:35 AM,35.6,28.4,75,29.97,10.0,WNW,11.5,-,N/A,,Overcast,290,2013-10-21 06:35:00
1:54 AM,35.6,28.4,75,29.97,10.0,WNW,9.2,-,N/A,,Overcast,290,2013-10-21 06:54:00
2:15 AM,35.6,28.4,75,29.98,10.0,WNW,10.4,-,N/A,,Overcast,300,2013-10-21 07:15:00
2:35 AM,35.6,30.2,81,29.99,10.0,WNW,12.7,-,N/A,,Overcast,290,2013-10-21 07:35:00
2:54 AM,35.6,28.4,75,29.99,10.0,West,11.5,-,N/A,,Mostly Cloudy,280,2013-10-21 07:54:00
3:15 AM,33.8,26.6,75,29.99,10.0,WNW,9.2,-,N/A,,Scattered Clouds,290,2013-10-21 08:15:00
3:35 AM,32.0,26.6,80,29.99,10.0,WNW,9.2,-,N/A,,Clear,290,2013-10-21 08:35:00
3:55 AM,32.0,28.4,87,29.99,10.0,West,6.9,-,N/A,,Scattered Clouds,280,2013-10-21 08:55:00
4:15 AM,33.8,26.6,75,29.99,10.0,WNW,6.9,-,N/A,,Mostly Cloudy,290,2013-10-21 09:15:00
4:34 AM,33.8,26.6,75,29.99,10.0,WNW,6.9,-,N/A,,Overcast,290,2013-10-21 09:34:00
4:55 AM,33.8,26.6,75,29.99,10.0,West,6.9,-,N/A,,Overcast,280,2013-10-21 09:55:00
5:15 AM,30.2,26.6,86,29.99,10.0,West,6.9,-,N/A,,Scattered Clouds,270,2013-10-21 10:15:00
5:34 AM,30.2,26.6,86,30.00,10.0,West,6.9,-,N/A,,Scattered Clouds,270,2013-10-21 10:34:00
5:55 AM,32.0,26.6,80,30.00,10.0,West,4.6,-,N/A,,Overcast,270,2013-10-21 10:55:00
6:15 AM,32.0,26.6,80,30.00,10.0,West,5.8,-,N/A,,Overcast,260,2013-10-21 11:15:00
6:34 AM,33.8,26.6,75,30.00,10.0,West,6.9,-,N/A,,Overcast,260,2013-10-21 11:34:00
6:55 AM,33.8,28.4,81,30.00,10.0,West,5.8,-,N/A,,Overcast,270,2013-10-21 11:55:00
7:15 AM,33.8,28.4,81,30.00,10.0,West,5.8,-,N/A,,Overcast,260,2013-10-21 12:15:00
7:35 AM,33.8,28.4,81,30.01,10.0,West,6.9,-,N/A,,Overcast,260,2013-10-21 12:35:00
7:55 AM,33.8,28.4,81,30.01,10.0,West,5.8,-,N/A,,Overcast,260,2013-10-21 12:55:00
8:14 AM,33.8,28.4,81,30.01,10.0,West,5.8,-,N/A,,Overcast,260,2013-10-21 13:14:00
8:33 AM,33.8,26.6,75,30.02,10.0,West,6.9,-,N/A,,Overcast,260,2013-10-21 13:33:00
8:55 AM,35.6,26.6,70,30.01,10.0,WSW,5.8,-,N/A,,Overcast,250,2013-10-21 13:55:00
9:15 AM,35.6,26.6,70,30.01,10.0,West,8.1,-,N/A,,Overcast,260,2013-10-21 14:15:00
9:35 AM,35.6,26.6,70,30.02,10.0,West,8.1,-,N/A,,Overcast,260,2013-10-21 14:35:00
9:55 AM,35.6,28.4,75,30.02,10.0,West,8.1,-,N/A,,Overcast,260,2013-10-21 14:55:00
10:14 AM,35.6,24.8,65,30.02,10.0,West,9.2,12.7,N/A,,Overcast,280,2013-10-21 15:14:00
10:35 AM,37.4,24.8,60,30.02,10.0,WNW,12.7,-,N/A,,Overcast,290,2013-10-21 15:35:00
10:55 AM,37.4,24.8,60,30.02,10.0,West,11.5,-,N/A,,Overcast,280,2013-10-21 15:55:00
11:15 AM,37.4,23.0,56,30.02,10.0,West,11.5,17.3,N/A,,Overcast,280,2013-10-21 16:15:00
11:34 AM,37.4,24.8,60,30.01,10.0,West,10.4,-,N/A,,Overcast,270,2013-10-21 16:34:00
11:55 AM,39.2,23.0,52,30.01,10.0,WNW,13.8,17.3,N/A,,Overcast,300,2013-10-21 16:55:00
12:15 PM,39.2,24.8,56,30.00,10.0,WNW,10.4,21.9,N/A,,Mostly Cloudy,290,2013-10-21 17:15:00
12:35 PM,41.0,24.8,53,30.00,10.0,WNW,12.7,-,N/A,,Overcast,300,2013-10-21 17:35:00
12:55 PM,41.0,24.8,53,29.99,10.0,WNW,9.2,18.4,N/A,,Overcast,300,2013-10-21 17:55:00
1:15 PM,41.0,24.8,53,29.99,10.0,WNW,17.3,23.0,N/A,,Overcast,290,2013-10-21 18:15:00
1:35 PM,42.8,23.0,46,29.98,10.0,West,18.4,26.5,N/A,,Overcast,260,2013-10-21 18:35:00
1:55 PM,41.0,23.0,49,29.98,10.0,WNW,17.3,23.0,N/A,,Mostly Cloudy,290,2013-10-21 18:55:00
2:15 PM,42.8,23.0,46,29.97,10.0,West,19.6,25.3,N/A,,Mostly Cloudy,280,2013-10-21 19:15:00
2:34 PM,42.8,21.2,42,29.97,10.0,WNW,19.6,27.6,N/A,,Mostly Cloudy,290,2013-10-21 19:34:00
2:55 PM,44.6,23.0,43,29.97,10.0,West,17.3,27.6,N/A,,Scattered Clouds,280,2013-10-21 19:55:00
3:15 PM,44.6,21.2,39,29.96,10.0,West,18.4,26.5,N/A,,Scattered Clouds,270,2013-10-21 20:15:00
3:35 PM,44.6,21.2,39,29.96,10.0,NW,20.7,25.3,N/A,,Scattered Clouds,310,2013-10-21 20:35:00
3:55 PM,44.6,21.2,39,29.97,10.0,WNW,16.1,23.0,N/A,,Scattered Clouds,300,2013-10-21 20:55:00
4:14 PM,42.8,21.2,42,29.96,10.0,WNW,12.7,21.9,N/A,,Scattered Clouds,300,2013-10-21 21:14:00
4:35 PM,44.6,21.2,39,29.96,10.0,NW,12.7,18.4,N/A,,Clear,320,2013-10-21 21:35:00
4:55 PM,44.6,21.2,39,29.96,10.0,WNW,12.7,17.3,N/A,,Clear,300,2013-10-21 21:55:00
5:14 PM,44.6,21.2,39,29.96,10.0,NW,13.8,-,N/A,,Clear,310,2013-10-21 22:14:00
5:35 PM,42.8,21.2,42,29.97,10.0,NW,12.7,-,N/A,,Clear,320,2013-10-21 22:35:00
5:54 PM,41.0,24.8,53,29.97,10.0,NW,8.1,-,N/A,,Clear,310,2013-10-21 22:54:00
6:15 PM,37.4,23.0,56,29.97,10.0,NW,6.9,-,N/A,,Clear,320,2013-10-21 23:15:00
6:35 PM,37.4,24.8,60,29.97,10.0,NNW,4.6,-,N/A,,Clear,330,2013-10-21 23:35:00
6:55 PM,35.6,23.0,60,29.97,10.0,Calm,Calm,-,N/A,,Clear,0,2013-10-21 23:55:00
7:15 PM,33.8,23.0,65,29.97,10.0,Calm,Calm,-,N/A,,Clear,0,2013-10-22 00:15:00
7:35 PM,33.8,23.0,65,29.97,10.0,Calm,Calm,-,N/A,,Clear,0,2013-10-22 00:35:00
7:55 PM,32.0,23.0,69,29.97,10.0,Calm,Calm,-,N/A,,Scattered Clouds,0,2013-10-22 00:55:00
8:15 PM,33.8,24.8,70,29.97,10.0,Calm,Calm,-,N/A,,Scattered Clouds,0,2013-10-22 01:15:00
8:35 PM,30.2,24.8,80,29.97,10.0,Calm,Calm,-,N/A,,Scattered Clouds,0,2013-10-22 01:35:00
8:54 PM,32.0,24.8,75,29.97,10.0,Calm,Calm,-,N/A,,Scattered Clouds,0,2013-10-22 01:54:00
9:14 PM,28.4,23.0,80,29.97,10.0,Calm,Calm,-,N/A,,Scattered Clouds,0,2013-10-22 02:14:00
9:35 PM,28.4,24.8,86,29.97,10.0,Calm,Calm,-,N/A,,Scattered Clouds,0,2013-10-22 02:35:00
9:55 PM,28.4,24.8,86,29.97,10.0,Calm,Calm,-,N/A,,Clear,0,2013-10-22 02:55:00
10:15 PM,28.4,24.8,86,29.98,10.0,Calm,Calm,-,N/A,,Clear,0,2013-10-22 03:15:00
10:34 PM,28.4,23.0,80,29.98,10.0,Calm,Calm,-,N/A,,Scattered Clouds,0,2013-10-22 03:34:00
10:55 PM,28.4,24.8,86,29.98,10.0,Calm,Calm,-,N/A,,Mostly Cloudy,0,2013-10-22 03:55:00
11:14 PM,28.4,24.8,86,29.98,10.0,South,3.5,-,N/A,,Mostly Cloudy,170,2013-10-22 04:14:00
11:35 PM,28.4,26.6,93,29.98,10.0,Calm,Calm,-,N/A,,Mostly Cloudy,0,2013-10-22 04:35:00
11:55 PM,28.4,24.8,86,29.98,10.0,Calm,Calm,-,N/A,,Mostly Cloudy,0,2013-10-22 04:55:00